CZ-6A DEB, 61307

Orbit data source: Space-Track

CZ-6A DEB, 61307 is space debris in LEO originally from a launch on Tue, 06 Aug 2024 UTC launched from the Taiyaun Space Center, China (TSC). Debris objects in space refer to the collection of defunct objects orbiting the Earth. Examples of debris include non-operational satellites, rocket bodies, and fragments generated from explosions, collisions, or faulty payload assembly.

Loading next visibility...
Identifier
61307, 2024-140TU
Orbit
LEO
Country
Flag of CNCN / PRC
Related business
Manufacturer
SAST
Mission
Spacecraft
Bus & Motor
Unknown
Mass
Unknown
Launch date (UTC)
2024-08-06 (2 years ago)
Launch vehicle
Unknown
Launch site
Taiyaun Space Center, China (TSC)
Object type
Payload
Rocket body
Debris
Shape & HBR
Unknown shape, 0.1 m
Radar Cross Section
Medium (>0.1 m² and <1 m²)

Expand to show TLE details & history
Last TLE update: 17 hours ago

TLE from 17 hours ago
0 CZ-6A DEB
1 61307U 24140TU  26171.18625693  .00001986  00000-0  39210-3 0  9997
2 61307  88.7942 252.0328 0098103 208.3604 151.2249 14.58997771 96213
Epoch: 2026-06-20T04:28Z
TLE epoch observation values (Epoch: 2026-06-20T04:28:12.598Z)
Latitude
-0.00003°
Longitude
-83.42419°
Altitude
760.522 km
Speed
7.442 km/s
True Right ascension
16h 48m 07s
True Declination
0° 00' 00"
Sunlit
Object was in full shadow at epoch
Visualization orbit readout
Latitude
Unknown
Longitude
Unknown
Altitude
Unknown
Speed
Unknown
Apparent Right ascension
Unknown
Apparent Declination
Unknown
Sunlit
N/A
Visualization observer readout
Local Sidereal Time
08:42:11
Azimuth
Unknown
Elevation
Unknown
Doppler factor
Unknown
Orbital elements
Apogee altitude
762.681 km
Perigee altitude
623.935 km
Semi-major axis
7,071.445 km
Eccentricity
0.00981
Inclination
88.7942°
RAAN
252.0328°
Arg. of periapsis
208.3604°
True anomaly
151.76028°
Mean anomaly
151.2249°
Eccentric anomaly
151.49316°
Mean motion
3.6499 °/min
Orbital period
98.63 mins
BSTAR
0.0003921
Loading maneuver chart data...
Computing Atmospheric mass density...
Loading historical data...
Loading historical data...
Loading historical data...
Loading historical data...
Loading historical data...
Loading historical data...
Loading historical data...

Documentation

Showing up to 5 results
|